Regional Weather Roundup
Issued by NWS Charleston, SC

Current Version | Previous Version | Graphics & Text | Print | Product List | Glossary On
Versions: 1 2 3 4 5 6 7 8 9 10 11 12 13 14 15 16 17 18 19 20 21 22 23 24 25 26 27 28 29 30 31 32 33 34 35 36 37 38 39 40 41 42 43 44 45 46 47 48 49 50
000 ASUS42 KCHS 231827 RWRCHS REGIONAL WEATHER ROUNDUP NATIONAL WEATHER SERVICE CHARLESTON SC 200 PM EDT TUE MAY 23 2017 NOTE: "FAIR" INDICATES FEW OR NO CLOUDS BELOW 12,000 FEET WITH NO SIGNIFICANT WEATHER AND/OR OBSTRUCTIONS TO VISIBILITY. NOT ALL STATIONS ARE QUALITY CONTROLLED. USE DATA WITH CAUTION... ESPECIALLY DEWPOINT OBSERVATIONS. SCZ027-030-031-034>040-042>050-231900- ...SOUTHEAST SOUTH CAROLINA... CITY SKY/WX TMP DP RH WIND PRES REMARKS N CHARLESTON LGT RAIN 73 71 93 S10 29.79S 6HR MIN TEMP: 73; 6HR MAX TEMP: 81; 6HR PCP: 0.10; WATERFRONT PRK N/A 78 73 84 W7G21 29.78F JOHNS ISLAND RAIN 72 70 94 VRB8 29.80S VSB 1/2 PINOPOLIS N/A 79 72 78 SW13 29.71F MONCKS CORNER MOCLDY 77 70 78 SW7 29.77F SUMMERVILLE MOCLDY 79 70 73 SW7 29.79F BEAUFORT MCAS LGT RAIN 75 73 93 W8 29.79F 6HR MIN TEMP: 73; 6HR MAX TEMP: 81; 6HR PCP: 0.27; BEAUFORT ARPT FAIR 77 72 83 SW10 29.79F HILTON HEAD IS PTSUNNY 79 73 83 S12 29.81F WALTERBORO RAIN 70 68 94 NW8 29.81R ALLENDALE MOCLDY 72 68 88 CALM 29.78F ...SOUTHERN MIDLANDS AND PEE DEE... CITY SKY/WX TMP DP RH WIND PRES REMARKS GEORGETOWN TSTM 77 72 83 SW10 29.77F KINGSTREE MOCLDY 75 68 78 SW7 29.76F ORANGEBURG CLOUDY 72 68 87 W5 29.79F 6HR MIN TEMP: 70; 6HR MAX TEMP: 74; 6HR PCP: 0.07; BARNWELL CLOUDY 72 70 94 CALM 29.79F AIKEN RAIN 70 68 94 SW7 29.82F MANNING RAIN 72 72 100 SW9 29.78S COLUMBIA PTSUNNY 75 70 84 SW8 29.77F 6HR MIN TEMP: 71; 6HR MAX TEMP: 75; 6HR PCP: 0.18; SUMTER NOT AVBL FLORENCE RAIN 74 72 93 SW9 29.76F FOG 6HR MIN TEMP: 70; 6HR MAX TEMP: 75; 6HR PCP: 0.10; MYRTLE BEACH PTSUNNY 79 72 78 S14 29.79F N MYRTLE BEACH MOSUNNY 79 72 79 S14 29.77F 6HR MIN TEMP: 73; 6HR MAX TEMP: 80; 6HR PCP: 0.31; $$ GAZ063-065-086>088-099>101-113>116-118-119-134>141-150-231900- ...SOUTHEAST GEORGIA... CITY SKY/WX TMP DP RH WIND PRES REMARKS SAVANNAH ARPT CLOUDY 77 71 82 SW9 29.80F 6HR MIN TEMP: 72; 6HR MAX TEMP: 82; 6HR PCP: 0.23; HUNTER AAF CLOUDY 79 76 91 SW6 29.78 6HR MIN TEMP: 73; 6HR MAX TEMP: 81; 6HR PCP: 0.01; FORT STEWART CLOUDY 77 73 85 S6 29.78F 6HR MIN TEMP: 72; 6HR MAX TEMP: 78; 6HR PCP: 0.42; STATESBORO HVY RAIN 70 70 100 NE3 29.80S VSB 1 SYLVANIA HVY RAIN 72 70 95 N3 29.80F CLAXTON FAIR N/A N/A N/A CALM 29.79S ...CSRA...CENTRAL AND FAR SOUTHEAST GEORGIA... CITY SKY/WX TMP DP RH WIND PRES REMARKS THOMSON LGT RAIN 68 67 96 W6 29.83F AUGUSTA-BUSH LGT RAIN 73 67 81 NW7 29.78F 6HR MIN TEMP: 72; 6HR MAX TEMP: 74; 6HR PCP: 0.30; AUGUSTA-DANIEL LGT RAIN 71 65 81 VRB3 29.80F SWAINSBORO HVY RAIN 70 70 100 N3 29.80F VSB 1/2 VIDALIA CLOUDY 72 70 94 W5 29.79S EASTMAN RAIN 71 71 100 CALM 29.80F HAZLEHURST FAIR 80 74 84 SW5 29.76F ALMA CLOUDY 82 71 69 S12 29.78F 6HR MIN TEMP: 74; 6HR MAX TEMP: 83; 6HR PCP: TRACE; WAYCROSS CLOUDY 87 77 71 SW15G29 29.78F HX 98 JESUP FAIR 82 70 65 SW8 29.79F BAXLEY PTSUNNY 81 77 89 S8 29.77F BRUNSWICK CLOUDY 81 73 78 SW7 29.82F SAINT SIMONS CLOUDY 81 72 74 SW8 29.81F 6HR MIN TEMP: 76; 6HR MAX TEMP: 82; 6HR PCP: TRACE; $$ SCZ027-028-034-036>038-045-046-048>050-GAZ119-141-231900- ...LAKE AND SUPPLEMENTAL COASTAL OBSERVATIONS... STATION/POSITION TIME TEMP WIND PRES WAVE SWELL AIR SEA DIR/SP/G HT/PER HT/PER/DIR (UTC) (F) (DEG/KT/KT) (MB) (FT/S) (FT/S/D) WINYAH BAY 1745 80 210/ 12 1008.0F LAKE MURRAY 1820 72 270/ 5/ 8 1007.5 ACE BASIN NERRS 1745 73 250/ 3 1009.0F FORT PULASKI 1800 79 250/ 7/ 11 1009.4 SAPELO ISLAND 1800 81 220/ 14 1009.0 $$ ANZ835-935-AMZ111-154-330-350-352-354-370-450-454-472-231900- ...C-MAN AND BUOY OBSERVATIONS... STATION/POSITION TIME TEMP WIND PRES WAVE SWELL AIR SEA DIR/SP/G HT/PER HT/PER/DIR (UTC) (F) (DEG/KT/KT) (MB) (FT/S) (FT/S/D) BUOY 41004 1810 77 78 210/ 17/ 21 1009.0 BUOY 41008 1750 78 78 180/ 14/ 17 1009.2F 3/ 5 2/ 90/ 8 FOLLY BEACH CMAN 1800 77 210/ 18/ 21 1009.7S CAPERS NEARSHORE 1808 79 77 210/ 17/ 23 1008.5F FRIPP NEARSHORE 1808 78 79 220/ 16/ 21 1008.4F STATION/POSITION TIME TEMP WIND PRES WAVE SWELL AIR SEA DIR/SP/G HT/PER HT/PER/DIR (UTC) (F) (DEG/KT/KT) (MB) (FT/S) (FT/S/D) 5E ST. MARYS GA 1800 79 N/A 3/ 5 FRYING PAN BUOY 1810 78 78 220/ 16/ 17 1008.9 BUOY 41025 1750 73 77 190/ 19/ 25 1009.0F 5/ 5 2/110/ 9 CAPE LOOKOUT NC 1800 74 210/ 15/ 19 1008.3F BUOY 41002 1750 76 76 200/ 16/ 19 1013.9F 4/ 5 2/340/13 BUOY 41010 1810 80 79 200/ 14/ 16 1013.6 ST AUGUSTINE FL 1800 85 80 190/ 18/ 20 1010.7F $$

USA.gov is the U.S. government's official web portal to all federal, state and local government web resources and services.